RH
19 17 19 20 24 26 28 30 30 31 34 34 36 40 41 38 37 38 42 39 40 40 36 37 37 37 42 50 54 63 62 68 65 67 70 70 66 65 65 63 69 73 70 71
15 18 18 22 26 27 29 30 28 31 35 33 43 37 40 42 39 35 36 38 39 39 36 36 36 36 41 50 57 62 67 70 68 65 69 65 62 61 59 67 70 72 73 75
17 17 17 23 27 26 26 24 30 33 32 37 33 44 47 41 39 37 35 31 29 30 38 35 37 35 40 48 57 61 76 75 70 75 70 70 70 69 68 72 76 71 73 76
13 13 15 18 20 22 21 26 29 31 29 31 35 28 40 42 42 39 34 32 31 28 31 36 36 39 38 44 50 60 65 74 68 75 72 76 62 82 63 66 67 70 71 66
15 14 15 15 14 22 20 24 27 32 31 31 33 32 30 43 46 40 36 32 30 29 28 33 36 38 40 43 49 55 68 80 69 73 75 69 72 85 72 70 76 79 77 72
12 10 11 10 19 21 24 22 25 28 28 26 29 32 25 27 29 29 30 30 30 29 29 33 35 39 41 43 48 53 71 77 73 73 76 80 80 72 71 75 71 69 66 70
11 10 9 13 13 23 22 20 26 26 23 22 33 32 24 21 24 25 24 26 26 28 29 33 39 43 44 48 49 51 66 72 74 72 70 73 74 75 80 74 68 73 71 70
13 13 11 17 15 19 24 20 24 30 25 24 34 24 21 22 22 24 25 24 27 27 26 31 39 44 48 48 51 54 62 70 72 71 74 74 74 66 64 70 68 66 66 68
15 15 12 19 21 19 24 25 19 26 34 27 24 24 21 22 24 23 24 26 24 25 28 33 38 43 47 49 54 56 63 61 66 61 71 74 74 73 66 74 73 65 73 69
13 17 11 12 14 16 18 20 22 24 28 22 18 27 19 21 22 24 25 24 26 31 36 36 38 40 43 44 48 53 56 59 60 56 62 62 65 71 69 70 74 74 72 77
11 12 12 11 14 14 20 19 22 21 22 20 16 13 25 25 21 20 20 22 24 33 34 39 39 40 41 43 46 55 57 57 54 54 57 60 61 63 70 67 73 75 73 79
10 10 13 10 10 13 15 17 16 19 29 28 22 12 17 20 19 24 23 23 25 38 38 38 42 44 45 47 45 49 53 52 55 58 66 65 66 67 65 71 72 76 79 75
11 12 14 11 9 11 10 15 14 15 18 31 17 12 15 22 26 25 23 25 31 38 44 43 44 50 51 50 52 49 53 56 53 64 65 65 66 66 67 70 71 76 78 76
20 10 12 12 13 12 14 12 15 11 14 24 18 13 13 30 33 29 32 30 30 39 47 46 48 51 56 60 64 63 60 57 63 63 63 68 67 65 65 71 78 78 80 76
8 11 14 11 11 11 10 11 13 12 13 12 13 14 32 42 44 41 38 35 37 39 45 48 50 56 63 66 69 70 63 66 64 71 66 73 74 77 79 83 84 86 84 79
10 15 16 12 11 12 18 16 10 11 12 18 16 37 42 50 47 41 41 40 40 41 44 47 51 55 60 62 69 68 69 67 69 74 71 80 89 90 88 86 85 86 81 78
13 15 18 16 13 18 20 25 23 32 20 23 26 37 46 50 57 62 54 53 58 58 59 58 55 54 57 58 64 66 68 70 76 85 91 94 94 94 96 96 96 93 91 86
19 24 22 18 21 20 25 32 35 38 41 36 37 44 49 55 62 60 59 58 62 63 64 66 65 70 70 60 63 68 73 82 88 90 90 91 95 97 99 97 96 96 87 91
13 21 28 23 19 36 41 38 35 32 42 39 44 49 48 47 39 55 64 63 65 67 67 67 66 75 80 80 79 83 88 89 91 91 87 93 90 95 90 89 86 83 88 87
18 25 20 36 32 35 26 31 27 28 40 34 33 38 40 40 26 32 64 62 63 67 73 74 71 72 78 83 80 86 89 89 92 93 94 95 96 92 86 83 84 80 84 85
24 28 23 27 26 25 25 29 28 32 30 34 32 33 39 36 38 58 63 63 65 71 77 76 82 86 88 82 80 85 86 92 92 94 96 95 90 91 90 88 82 85 89 95
28 27 26 34 35 26 28 34 31 31 37 34 36 38 39 46 62 67 62 65 66 73 81 79 86 87 86 80 82 89 90 93 96 93 89 86 85 85 93 96 95 93 97 97
26 24 25 22 23 40 37 33 31 29 40 40 40 40 46 58 66 62 67 69 69 76 89 76 76 80 81 78 77 80 91 88 83 75 79 79 82 81 84 96 98 99 98 99
40 42 36 40 45 41 38 38 35 34 36 42 38 43 47 54 61 65 65 70 73 69 71 67 68 74 78 76 76 79 79 82 80 78 80 84 86 90 87 86 88 98 99 99
32 41 50 56 51 44 42 37 37 46 46 49 52 54 54 57 65 74 74 74 72 73 73 70 69 76 83 84 81 74 75 76 76 81 90 95 93 99 98 99 97 94 93 97
37 50 36 34 46 52 50 54 50 53 53 54 60 68 67 65 77 78 75 76 76 79 81 86 86 91 93 89 88 85 78 78 76 84 98 99 98 99 99 86 76 94 97 99
Wind_Speed
3 3 2 1 2 2 3 1 5 1 4 2 2 4 13 17 16 15 14 15 15 16 13 13 14 14 13 12 13 13 12 9 6 6 5 4 5 4 4 5 6 4 4 5
5 6 2 4 2 1 1 3 3 3 3 3 3 7 10 15 19 18 17 16 16 15 14 13 16 16 16 15 14 12 9 9 8 6 4 3 3 4 3 3 4 4 5 5
8 3 8 5 3 3 1 4 4 3 1 3 5 3 5 12 13 14 16 17 17 17 16 14 14 17 16 16 16 13 11 13 11 9 5 3 2 2 3 3 2 2 2 2
3 4 5 3 2 5 5 1 2 1 3 4 7 4 3 8 15 17 17 17 19 18 16 15 14 15 17 18 14 14 16 9 11 11 9 8 5 3 2 2 2 3 4 3
7 7 4 2 1 6 5 5 6 3 2 2 4 1 1 2 8 16 18 18 18 18 18 16 16 17 15 14 15 15 14 10 11 11 10 8 8 2 2 3 5 3 4 5
4 0 2 1 4 2 12 4 4 3 1 2 5 5 2 3 3 4 12 15 16 17 17 14 13 13 14 13 13 13 14 13 11 12 11 12 10 7 5 5 5 5 4 4
4 8 0 3 3 4 4 1 2 3 3 5 4 4 4 3 5 4 3 8 11 14 13 12 13 14 13 15 15 14 14 14 12 11 12 12 11 9 9 8 6 7 5 5
10 10 9 6 5 3 3 2 2 2 5 6 2 3 3 1 2 5 8 8 4 6 7 11 13 14 15 15 15 15 16 14 13 12 12 11 11 6 6 6 6 6 6 6
7 5 2 3 4 3 6 4 3 4 2 3 3 3 6 4 8 9 7 7 8 7 8 11 12 13 14 14 16 16 15 15 13 14 11 10 9 9 8 8 7 5 5 5
6 6 1 5 5 8 3 10 4 0 2 2 1 4 4 1 2 4 6 7 5 3 7 9 10 12 13 14 12 13 14 16 15 13 12 10 11 10 9 8 8 8 7 7
6 1 5 3 6 9 6 5 5 5 3 2 2 3 5 5 3 5 6 3 3 4 6 8 8 10 11 11 13 13 13 13 14 13 13 11 10 11 11 10 9 8 8 9
5 2 2 2 4 2 1 6 6 4 5 1 3 2 6 7 7 6 7 5 2 4 5 6 7 9 11 12 13 13 12 13 13 13 13 13 12 12 12 11 11 10 11 11
9 4 2 5 5 4 3 4 3 5 4 5 2 0 4 8 9 8 5 4 2 2 4 5 5 7 8 10 12 13 13 14 13 13 13 13 13 13 13 11 9 9 10 10
12 5 7 6 2 5 5 5 6 6 6 7 4 2 5 14 13 12 10 7 3 1 1 4 5 6 7 9 11 12 12 12 12 13 13 13 13 13 12 9 8 9 9 10
9 10 5 3 2 2 5 10 11 9 3 4 5 3 7 10 10 9 8 6 5 3 1 3 4 6 8 9 10 11 12 12 13 14 14 13 12 10 9 8 9 9 8 9
4 6 7 4 3 2 3 2 8 4 7 5 6 3 3 5 5 8 7 7 9 6 1 3 6 8 10 12 12 11 11 13 13 12 11 8 8 9 8 6 5 6 8 9
10 9 7 6 3 5 5 3 4 4 5 9 6 7 4 8 12 11 9 8 10 9 8 8 7 7 9 8 9 10 9 6 7 6 8 10 11 11 7 7 8 7 10 8
8 8 0 5 6 7 4 1 4 11 4 5 13 10 7 8 7 7 7 8 9 9 10 10 9 10 9 5 3 1 3 5 9 10 10 9 6 7 13 14 14 13 14 10
5 6 6 5 5 3 4 8 8 4 6 5 10 9 8 6 2 6 6 6 8 9 9 9 9 9 8 8 7 8 8 9 9 9 8 4 1 7 9 10 12 10 13 13
5 5 4 4 5 7 6 16 5 8 7 8 7 9 10 3 3 2 5 7 9 9 9 9 10 11 11 10 9 11 10 9 7 3 2 4 7 11 13 12 14 14 14 14
4 4 5 6 3 2 4 10 9 6 6 15 11 8 9 4 3 5 4 8 9 9 11 10 11 11 9 9 10 10 8 5 1 2 3 4 7 10 11 12 12 13 14 10
7 7 4 4 4 4 12 11 10 5 12 15 10 9 7 6 6 6 7 8 9 9 8 8 8 9 7 6 6 7 7 4 3 3 3 5 6 5 6 10 11 13 11 12
5 2 7 5 4 2 14 3 4 16 17 10 11 8 9 8 6 7 8 8 8 8 6 6 7 8 8 8 6 7 6 4 3 4 5 5 6 8 10 11 9 4 10 8
2 1 4 6 4 6 8 5 14 15 12 12 9 10 8 8 9 9 9 8 9 9 8 7 9 10 8 6 6 5 5 5 2 0 3 5 5 6 9 8 9 8 10 9
1 9 8 5 5 9 6 11 16 13 14 13 9 8 7 9 10 10 10 9 8 8 8 7 7 6 7 6 7 6 5 6 4 3 6 6 5 4 6 7 8 7 7 7
7 9 7 6 17 4 14 13 16 17 14 13 12 10 8 10 12 12 11 8 7 8 8 8 8 8 8 8 8 9 8 6 7 9 6 5 4 4 4 4 6 17 11 12
Wind_Direction
55 223 223 332 242 39 144 359 315 120 161 142 164 196 201 188 204 210 215 209 215 229 235 231 226 221 212 207 202 201 192 194 192 178 191 223 225 209 209 221 224 228 236 232
146 238 140 105 179 216 111 316 4 109 155 262 218 284 201 196 208 214 218 224 227 225 222 222 217 217 215 205 204 197 191 177 207 211 192 210 189 200 202 200 214 225 221 241
200 121 143 157 170 263 324 296 27 331 349 122 325 120 178 214 227 231 236 239 239 235 229 221 218 213 211 210 202 187 178 197 193 204 187 179 194 182 185 188 198 190 202 234
203 151 199 188 198 224 316 37 171 359 351 357 346 22 195 210 223 228 235 233 237 233 226 222 208 206 207 213 205 182 201 185 190 190 202 200 209 215 249 230 178 155 178 226
180 170 173 240 4 194 29 102 108 110 80 291 56 281 55 211 227 229 230 237 234 231 227 220 209 201 206 201 199 192 192 185 193 193 206 208 218 213 187 210 201 181 229 243
139 276 196 220 94 208 144 123 91 85 341 43 19 319 113 196 210 210 227 227 226 225 224 221 217 198 203 197 196 195 190 199 188 199 202 221 216 203 194 198 199 192 209 197
207 220 149 175 234 105 183 262 320 328 2 27 8 273 301 254 226 254 264 239 233 227 221 215 208 200 197 194 193 194 197 200 197 202 207 216 227 222 220 212 209 185 186 195
199 211 215 174 221 189 155 226 251 337 3 333 36 313 108 213 228 272 256 257 261 219 215 212 205 204 199 193 193 194 193 199 194 204 211 214 217 223 234 222 206 204 199 192
168 238 147 181 139 212 141 194 61 115 112 246 335 271 245 233 238 225 210 214 236 233 229 217 205 203 203 198 195 199 192 198 196 200 202 203 214 222 229 216 202 199 199 178
177 209 98 113 133 59 266 136 163 173 278 343 58 288 319 25 194 197 215 211 219 226 198 202 197 199 201 203 199 201 204 202 198 201 199 205 213 218 225 214 199 197 186 177
163 232 119 203 198 184 149 170 69 107 332 296 335 7 208 285 341 248 238 226 215 222 198 198 190 193 200 203 201 201 200 208 217 214 214 210 208 206 208 206 197 193 180 176
175 117 236 256 86 340 275 150 178 246 173 301 328 296 16 344 342 329 324 326 277 216 221 212 193 182 189 199 207 208 208 209 214 214 208 206 204 204 206 207 199 189 179 175
171 207 232 157 148 122 223 133 119 108 127 184 237 97 3 4 26 20 350 341 324 225 204 216 207 199 205 208 208 208 207 210 210 205 203 203 204 202 209 214 207 191 179 181
166 156 202 218 188 137 160 165 183 222 189 158 228 313 339 351 354 357 7 349 333 201 152 208 206 212 211 211 213 216 215 205 206 207 206 204 203 204 208 204 202 196 195 183
187 212 188 240 267 203 148 159 180 203 157 223 128 206 342 341 332 347 351 28 60 63 71 233 229 223 219 216 221 225 222 207 201 201 202 203 198 194 193 186 183 178 197 209
196 201 172 202 163 192 124 108 163 181 153 104 143 107 354 356 75 58 36 54 62 61 97 233 234 233 227 222 221 223 221 214 202 200 201 188 167 158 143 138 160 197 205 206
174 155 170 194 153 152 156 161 188 138 176 161 171 130 128 90 71 57 57 59 57 46 40 25 349 306 283 259 238 231 232 218 199 163 145 135 133 111 119 139 167 211 225 216
150 140 76 137 157 204 45 272 146 110 101 167 124 136 126 103 99 75 45 42 39 22 20 16 6 356 352 329 280 345 147 148 142 135 126 124 123 157 165 199 206 178 198 206
240 139 109 156 175 99 108 163 165 153 139 148 138 152 151 136 163 97 55 42 36 23 15 13 19 29 45 55 72 89 91 100 114 134 138 134 337 289 276 258 241 212 191 202
118 85 134 156 151 186 186 174 176 146 150 191 193 193 196 190 191 98 51 50 50 44 35 29 39 49 55 63 86 90 87 84 76 57 334 310 291 292 286 272 235 211 200 193
130 66 136 153 118 207 202 157 156 206 155 174 187 167 161 194 33 102 70 57 52 45 43 54 57 61 70 83 90 84 81 71 31 339 300 306 328 320 309 291 251 220 201 175
155 149 150 122 122 191 153 137 195 142 138 157 171 172 162 131 137 108 83 64 48 47 49 58 66 63 62 78 84 78 66 21 16 52 63 45 18 349 325 309 258 218 187 178
195 196 164 214 157 78 168 154 154 157 147 159 163 162 150 146 140 117 91 73 70 72 74 62 67 69 61 66 69 72 52 43 95 91 68 62 37 21 19 6 11 203 183 161
141 218 117 163 151 171 166 147 148 154 148 149 153 150 162 145 135 108 89 82 85 85 87 83 84 86 76 49 43 46 24 7 327 354 11 4 23 9 27 25 38 54 68 69
110 157 130 79 99 114 141 158 145 139 137 132 134 150 152 132 111 105 98 96 93 87 81 78 80 66 46 34 32 26 11 349 351 16 37 49 48 31 59 46 25 51 76 110
194 156 182 184 179 149 163 157 153 140 142 147 141 124 102 122 116 117 113 105 97 85 73 70 67 59 43 42 40 38 35 23 60 71 58 37 52 60 22 60 83 45 54 67